Weather History for Fort Morgan, CO

Change the Weather History Date:

Wednesday, February 13, 2013

  Actual Average (KAKO) Record (KAKO)
Temperature  
Mean Temperature 32 °F 31 °F  
Max Temperature 53 °F 43 °F 74 °F (1954)
Min Temperature 10 °F 19 °F -9 °F (1948)
Degree Days  
Heating Degree Days 34    
Month to date heating degree days  
Cooling Degree Days 0    
Month to date cooling degree days  
Moisture  
Dew Point 12 °F    
Average Humidity 51    
Maximum Humidity 83    
Minimum Humidity 19    
Precipitation  
Precipitation 0.00 in 0.01 in 0.18 in (1952)
Month to date precipitation 0.18  
Year to date precipitation 0.48  
Sea Level Pressure  
Sea Level Pressure 29.95 in    
Wind  
Wind Speed 11 mph (WNW)    
Max Wind Speed 30 mph    
Max Gust Speed 41 mph    
Visibility 10 miles    
Events      
T = Trace of Precipitation, MM = Missing Value Source: NWS Daily Summary

Daily Weather History Graph

Daily Weather History Graph

Search for Another Location

Airport:

Trip Planner

Search our weather history database for the weather conditions in past years. The results will help you decide how hot, cold, wet, or windy it might be!

Date:

Astronomy

Feb. 13, 2013 Rise Set
Actual Time 6:50 AM MST 5:28 PM MST
Civil Twilight 6:22 AM MST 5:56 PM MST
Nautical Twilight 5:50 AM MST 6:28 PM MST
Astronomical Twilight 5:19 AM MST 7:00 PM MST
Moon 8:20 AM MST (2/13) 9:34 PM MST (2/13)
Length of Visible Light 11h 33m
Length of Day
10h 37m
Waxing Crescent, 14% of the Moon is Illuminated
Feb 13
Waxing Crescent
Feb 17
First Quarter
Feb 25
Full
Mar 4
Last Quarter
Mar 11
New

Hourly Weather History & Observations

Time (MST) Temp. Windchill Dew Point Humidity Pressure Visibility Wind Dir Wind Speed Gust Speed Precip Events Conditions
12:15 AM 14.5 °F 1.9 °F 6.8 °F 71% 30.03 in 10.0 mi West 10.4 mph - N/A   Clear
12:35 AM 15.1 °F 3.3 °F 7.7 °F 73% 30.03 in 10.0 mi WNW 9.2 mph - N/A   Clear
12:55 AM 16.7 °F 8.3 °F 8.6 °F 70% 30.02 in 10.0 mi West 5.8 mph - N/A   Clear
1:15 AM 18.3 °F 9.1 °F 10.2 °F 71% 30.00 in 10.0 mi West 6.9 mph - N/A   Clear
1:35 AM 18.3 °F 10.2 °F 9.7 °F 69% 30.00 in 10.0 mi West 5.8 mph - N/A   Clear
1:55 AM 16.9 °F 7.4 °F 9.1 °F 72% 29.99 in 10.0 mi West 6.9 mph - N/A   Clear
2:15 AM 15.1 °F 5.2 °F 8.4 °F 75% 29.99 in 10.0 mi WSW 6.9 mph - N/A   Clear
2:35 AM 14.0 °F 3.9 °F 8.4 °F 78% 29.98 in 10.0 mi West 6.9 mph - N/A   Clear
2:55 AM 13.8 °F 2.7 °F 7.9 °F 77% 29.97 in 10.0 mi West 8.1 mph - N/A   Clear
3:15 AM 16.3 °F 7.8 °F 9.3 °F 74% 29.96 in 10.0 mi West 5.8 mph - N/A   Clear
3:35 AM 16.3 °F 7.8 °F 8.2 °F 70% 29.95 in 10.0 mi WSW 5.8 mph - N/A   Clear
3:55 AM 12.9 °F 1.6 °F 7.7 °F 80% 29.95 in 10.0 mi WSW 8.1 mph - N/A   Clear
4:15 AM 11.5 °F -1.9 °F 7.0 °F 82% 29.95 in 10.0 mi West 10.4 mph - N/A   Clear
4:35 AM 11.1 °F - 6.4 °F 81% 29.95 in 10.0 mi Calm Calm - N/A   Clear
4:55 AM 10.9 °F -0.8 °F 6.4 °F 82% 29.94 in 10.0 mi West 8.1 mph - N/A   Clear
5:15 AM 10.4 °F 4.0 °F 5.5 °F 81% 29.94 in 10.0 mi WSW 3.5 mph - N/A   Clear
5:35 AM 10.9 °F -1.8 °F 6.6 °F 83% 29.93 in 10.0 mi West 9.2 mph - N/A   Clear
5:55 AM 13.5 °F 1.3 °F 8.6 °F 81% 29.92 in 10.0 mi West 9.2 mph - N/A   Clear
6:15 AM 13.6 °F 4.6 °F 8.6 °F 80% 29.93 in 10.0 mi WSW 5.8 mph - N/A   Clear
6:35 AM 13.1 °F - 8.8 °F 83% 29.94 in 10.0 mi Calm Calm - N/A   Clear
6:55 AM 18.3 °F 11.5 °F 9.3 °F 68% 29.94 in 10.0 mi West 4.6 mph - N/A   Clear
7:15 AM 14.9 °F 7.5 °F 8.4 °F 76% 29.94 in 10.0 mi WSW 4.6 mph - N/A   Clear
7:35 AM 16.2 °F 7.6 °F 10.8 °F 79% 29.94 in 10.0 mi WSW 5.8 mph - N/A   Clear
7:55 AM 22.5 °F 12.4 °F 13.1 °F 67% 29.94 in 10.0 mi West 9.2 mph - N/A   Clear
8:15 AM 23.5 °F 15.4 °F 12.7 °F 63% 29.94 in 10.0 mi WSW 6.9 mph - N/A   Clear
8:35 AM 25.5 °F 17.8 °F 13.6 °F 61% 29.93 in 10.0 mi WSW 6.9 mph - N/A   Clear
8:55 AM 27.1 °F 21.8 °F 12.4 °F 54% 29.94 in 10.0 mi WSW 4.6 mph - N/A   Clear
9:15 AM 28.9 °F 22.8 °F 12.0 °F 49% 29.94 in 10.0 mi WSW 5.8 mph - N/A   Clear
9:35 AM 31.1 °F 24.5 °F 10.9 °F 43% 29.94 in 10.0 mi West 6.9 mph - N/A   Clear
9:55 AM 32.4 °F 24.6 °F 10.2 °F 40% 29.94 in 10.0 mi West 9.2 mph - N/A   Clear
10:15 AM 34.2 °F 28.2 °F 10.6 °F 38% 29.94 in 10.0 mi WNW 6.9 mph - N/A   Clear
10:35 AM 39.9 °F 33.9 °F 11.8 °F 32% 29.96 in 10.0 mi WNW 9.2 mph - N/A   Clear
10:55 AM 42.6 °F 37.2 °F 10.4 °F 27% 29.96 in 10.0 mi NW 9.2 mph - N/A   Clear
11:15 AM 43.5 °F 40.1 °F 9.5 °F 25% 29.96 in 10.0 mi WNW 5.8 mph - N/A   Clear
11:35 AM 46.2 °F 40.5 °F 10.4 °F 23% 29.95 in 10.0 mi WNW 12.7 mph 19.6 mph N/A   Clear
11:55 AM 47.5 °F - 10.4 °F 22% 29.95 in 10.0 mi WNW 13.8 mph 23.0 mph N/A   Clear
12:15 PM 49.3 °F - 10.6 °F 21% 29.94 in 10.0 mi WNW 17.3 mph 24.2 mph N/A   Clear
12:35 PM 50.2 °F - 10.2 °F 20% 29.92 in 10.0 mi WNW 21.9 mph 33.4 mph N/A   Clear
12:55 PM 51.1 °F - 10.2 °F 19% 29.91 in 10.0 mi West 20.7 mph 28.8 mph N/A   Clear
1:15 PM 52.0 °F - 10.8 °F 19% 29.91 in 10.0 mi West 15.0 mph 26.5 mph N/A   Clear
1:35 PM 53.1 °F - 12.2 °F 20% 29.90 in 10.0 mi NW 26.5 mph 35.7 mph N/A   Scattered Clouds
1:55 PM 51.8 °F - 12.9 °F 21% 29.89 in 10.0 mi NW 25.3 mph 33.4 mph N/A   Scattered Clouds
2:15 PM 52.0 °F - 12.4 °F 21% 29.89 in 10.0 mi NW 27.6 mph 38.0 mph N/A   Clear
2:35 PM 52.7 °F - 11.5 °F 19% 29.88 in 10.0 mi NW 29.9 mph 39.1 mph N/A   Clear
2:55 PM 52.2 °F - 11.3 °F 20% 29.88 in 10.0 mi WNW 28.8 mph 41.4 mph N/A   Clear
3:15 PM 51.8 °F - 11.3 °F 20% 29.88 in 10.0 mi WNW 25.3 mph 34.5 mph N/A   Clear
3:35 PM 51.3 °F - 11.3 °F 20% 29.89 in 10.0 mi WNW 25.3 mph 38.0 mph N/A   Clear
3:55 PM 49.8 °F - 11.7 °F 22% 29.89 in 10.0 mi WNW 28.8 mph 36.8 mph N/A   Clear
4:15 PM 49.1 °F - 12.2 °F 23% 29.89 in 10.0 mi WNW 26.5 mph 36.8 mph N/A   Clear
4:35 PM 48.2 °F - 12.7 °F 24% 29.89 in 10.0 mi WNW 25.3 mph 33.4 mph N/A   Clear
4:55 PM 46.6 °F - 12.7 °F 26% 29.90 in 10.0 mi NW 24.2 mph 32.2 mph N/A   Clear
5:15 PM 44.4 °F 35.7 °F 12.9 °F 28% 29.91 in 10.0 mi NW 23.0 mph 33.4 mph N/A   Clear
5:35 PM 42.8 °F 34.8 °F 13.1 °F 30% 29.92 in 10.0 mi WNW 17.3 mph 28.8 mph N/A   Clear
5:55 PM 41.5 °F 34.2 °F 13.1 °F 31% 29.93 in 10.0 mi NW 13.8 mph - N/A   Clear
6:15 PM 40.5 °F 31.2 °F 13.5 °F 33% 29.94 in 10.0 mi NW 19.6 mph 27.6 mph N/A   Clear
6:35 PM 40.1 °F 31.0 °F 13.6 °F 34% 29.94 in 10.0 mi NW 18.4 mph - N/A   Clear
6:55 PM 37.8 °F 28.3 °F 13.8 °F 38% 29.96 in 10.0 mi NW 17.3 mph 21.9 mph N/A   Clear
7:15 PM 37.9 °F 27.9 °F 15.3 °F 40% 29.96 in 10.0 mi NW 19.6 mph 25.3 mph N/A   Clear
7:35 PM 37.4 °F 26.9 °F 15.8 °F 41% 29.96 in 10.0 mi NW 20.7 mph 24.2 mph N/A   Clear
7:55 PM 36.7 °F 26.6 °F 15.4 °F 42% 29.96 in 10.0 mi NW 18.4 mph 23.0 mph N/A   Clear
8:15 PM 36.5 °F 26.7 °F 15.4 °F 42% 29.97 in 10.0 mi NW 17.3 mph - N/A   Clear
8:35 PM 36.0 °F 25.3 °F 15.4 °F 43% 29.97 in 10.0 mi NW 19.6 mph - N/A   Clear
8:55 PM 36.5 °F 27.4 °F 15.3 °F 42% 29.98 in 10.0 mi NW 15.0 mph - N/A   Clear
9:15 PM 34.2 °F 24.4 °F 14.9 °F 45% 29.98 in 10.0 mi NNW 15.0 mph - N/A   Clear
9:35 PM 34.3 °F 23.2 °F 15.4 °F 46% 29.98 in 10.0 mi NNW 19.6 mph - N/A   Clear
9:55 PM 32.5 °F 20.8 °F 16.0 °F 51% 29.99 in 10.0 mi North 19.6 mph - N/A   Clear
10:15 PM 31.3 °F 19.5 °F 17.4 °F 57% 29.99 in 10.0 mi North 18.4 mph - N/A   Clear
10:35 PM 31.6 °F 20.7 °F 22.3 °F 68% 29.99 in 10.0 mi North 16.1 mph - N/A   Clear
10:55 PM 30.9 °F 19.4 °F 24.4 °F 77% 29.99 in 10.0 mi North 17.3 mph - N/A   Clear
11:15 PM 30.2 °F 19.8 °F 24.8 °F 80% 29.99 in 10.0 mi North 13.8 mph - N/A   Clear
11:35 PM 30.9 °F 19.8 °F 25.7 °F 81% 30.00 in 10.0 mi North 16.1 mph 24.2 mph N/A   Clear
11:55 PM 31.5 °F 19.4 °F 24.6 °F 76% 29.99 in 10.0 mi North 19.6 mph 24.2 mph N/A   Clear